Wind_Speed
14 13 12 12 12 14 16 17 19 19 19 21 20 20 21 22 21 21 21 21 20 20 20 20 20 20 22 23 23 22 23 24 24 24 24 25 24 24 25 26 26 25 25 26
13 12 12 12 13 15 15 16 18 19 20 20 21 21 22 21 20 20 20 20 20 19 19 19 19 19 20 20 21 20 19 19 20 22 22 22 23 23 23 23 23 23 24 25
12 11 11 12 13 14 15 17 18 19 19 20 20 21 21 20 20 20 19 18 17 17 17 17 17 17 18 19 19 19 18 18 19 19 20 20 21 22 23 23 23 23 23 24
10 10 11 11 11 13 15 16 17 17 18 19 19 19 19 19 19 19 18 17 17 17 17 17 17 17 18 18 18 17 17 18 18 19 19 20 20 21 21 21 21 21 22 22
11 10 10 11 13 13 15 16 16 16 17 18 18 19 19 18 18 18 17 17 17 17 17 17 17 17 16 15 15 15 15 15 15 16 16 17 18 19 20 20 20 20 20 20
12 11 12 11 14 15 15 16 16 16 17 17 17 18 18 18 17 17 17 16 15 14 14 14 14 13 13 13 13 13 14 13 13 13 14 14 15 16 17 17 18 18 18 19
13 12 13 13 13 14 14 15 16 16 16 16 16 17 17 17 16 15 15 15 14 13 12 12 12 12 12 11 11 11 11 11 12 12 12 13 13 14 14 14 15 16 16 17
12 12 13 12 13 14 14 15 15 15 15 15 16 16 16 16 15 14 13 12 11 11 10 10 11 11 11 11 10 10 10 10 10 11 11 11 12 12 13 13 14 14 15 15
13 12 11 12 13 13 14 14 14 14 15 14 14 14 14 14 13 12 11 10 10 9 8 8 8 9 9 9 9 9 9 9 10 10 10 10 11 11 12 12 13 13 14 14
12 11 11 12 11 12 12 13 13 13 13 13 13 13 13 12 12 11 10 9 9 8 7 6 6 6 6 7 7 7 8 8 8 9 9 9 9 9 10 10 10 11 11 12
10 10 9 10 10 11 11 12 12 12 12 12 12 12 12 12 11 10 9 8 8 7 6 6 6 6 5 5 5 6 6 7 7 7 7 7 7 7 8 8 9 9 9 9
8 8 9 9 9 9 10 10 10 11 11 11 11 11 11 11 10 9 8 8 8 7 6 6 6 5 5 5 5 5 5 5 5 5 5 5 6 6 7 7 7 7 7 7
9 8 8 8 8 8 8 9 10 10 9 9 10 10 10 10 10 9 9 8 8 7 7 6 6 5 5 5 5 5 4 4 4 4 4 5 5 5 5 6 6 6 6 7
7 7 8 7 6 6 7 8 8 8 8 8 9 10 10 10 10 10 9 9 9 8 8 8 7 6 5 5 6 6 6 5 5 5 4 4 5 5 5 6 6 6 7 7
7 7 6 4 4 4 5 6 6 7 8 8 9 9 10 11 11 11 11 11 10 10 9 10 9 9 8 8 8 8 8 8 7 7 7 7 7 7 7 7 7 7 7 7
8 6 5 3 2 3 4 5 6 7 7 8 8 9 10 11 12 12 12 12 12 11 11 11 11 11 11 11 11 10 11 11 10 10 9 9 9 9 9 9 9 8 8 9
7 6 5 3 1 1 3 4 5 6 7 8 8 9 10 11 12 13 13 13 13 12 12 12 13 13 13 13 13 12 12 12 12 11 11 11 11 11 11 10 10 10 10 10
9 7 5 4 2 1 2 4 5 6 7 8 9 9 10 11 12 13 14 14 14 14 13 13 13 13 14 14 14 14 14 14 13 13 13 13 12 12 12 12 11 11 11 11
10 8 6 4 3 2 3 4 5 7 8 9 9 10 11 11 12 13 14 14 15 15 15 15 15 14 15 15 15 15 15 15 15 14 14 14 14 14 13 13 13 13 12 12
11 9 7 6 5 4 5 5 6 7 8 9 10 10 11 11 12 13 14 15 16 16 17 17 16 16 16 16 15 15 15 16 15 15 15 14 14 14 14 14 14 13 13 13
13 11 9 7 7 6 6 6 6 7 8 9 9 10 11 12 12 13 13 14 15 16 17 17 17 17 17 16 16 16 16 16 16 15 15 15 15 14 14 14 14 14 13 13
14 12 11 9 9 8 7 7 7 8 8 9 10 10 11 12 12 13 13 14 15 15 16 16 17 16 16 16 16 16 16 15 15 15 15 15 15 15 15 14 14 14 14 14
16 14 13 11 10 9 8 8 8 8 8 9 10 10 11 11 12 13 13 14 14 14 15 16 16 16 16 15 15 15 16 15 15 14 14 14 14 14 14 14 14 14 14 14
18 16 15 13 11 10 9 9 8 8 8 8 9 10 10 11 11 12 13 13 13 14 14 14 15 15 15 15 15 15 15 15 14 14 14 14 14 14 14 14 14 14 14 13
20 18 17 15 13 11 10 9 8 8 7 7 8 8 9 10 10 11 11 12 12 12 13 13 13 14 14 13 14 14 14 14 14 14 14 13 13 14 13 13 13 13 13 13
22 20 18 16 14 13 11 10 8 7 6 6 6 7 7 8 9 10 10 10 11 11 12 12 12 13 13 13 13 13 13 13 13 13 13 13 13 13 13 13 13 13 13 13
24 22 20 18 16 14 12 10 9 7 6 5 5 5 5 6 6 7 8 9 10 10 10 11 11 12 12 12 12 13 13 13 13 13 13 13 13 13 13 13 13 13 13 13
Wind_Direction
263 273 283 290 291 287 287 289 292 297 294 291 298 306 307 306 304 299 293 291 287 284 280 277 276 274 273 271 271 269 268 266 264 262 263 262 262 263 266 267 265 264 266 267
262 271 276 282 287 288 288 290 292 294 296 301 306 306 306 307 305 299 296 294 288 284 280 278 275 274 273 273 274 271 268 266 267 266 265 264 265 266 267 268 267 269 269 271
261 268 275 278 283 288 291 294 295 298 302 305 305 304 304 306 306 305 301 297 293 288 285 282 279 277 275 275 273 273 273 273 274 272 268 267 267 268 269 270 271 271 274 276
266 271 277 279 280 285 295 298 300 302 305 308 308 309 307 307 306 303 302 298 294 291 289 285 283 281 278 276 275 278 278 277 276 274 270 268 268 269 270 271 275 278 280 279
268 271 276 287 292 301 304 305 306 308 309 310 311 312 313 313 311 307 303 300 295 290 287 286 286 285 282 282 281 281 282 282 278 277 273 273 274 274 275 276 278 279 279 279
261 269 277 288 296 304 304 306 308 313 313 313 315 316 318 318 315 311 306 302 300 294 290 289 290 288 286 286 285 285 283 282 281 279 279 279 280 280 280 279 281 283 284 283
262 270 280 288 296 300 303 307 312 316 317 317 319 321 321 320 318 315 310 306 303 298 295 292 292 292 289 288 287 286 282 280 282 281 282 283 283 283 282 282 282 282 282 284
266 268 274 287 295 299 303 307 312 315 319 320 321 323 323 325 323 319 315 311 306 303 300 297 295 293 291 290 288 287 287 284 284 285 285 286 284 283 283 284 284 284 284 285
259 268 280 288 292 297 303 310 315 319 322 324 325 326 327 330 330 327 323 319 316 313 308 304 302 300 298 294 291 290 289 289 287 292 291 289 286 286 287 286 286 287 288 288
259 271 281 289 293 300 306 314 319 324 327 330 331 331 334 337 336 336 335 332 327 323 319 318 317 316 310 298 288 287 290 291 294 296 295 294 293 295 294 292 291 293 293 294
257 279 288 293 298 303 310 315 321 328 331 335 336 338 342 344 345 346 345 344 343 339 341 337 331 324 316 312 308 302 299 299 299 301 301 301 301 302 304 304 304 303 303 303
253 270 284 294 301 307 312 319 325 331 336 342 345 346 352 356 356 355 354 354 356 356 358 355 349 348 346 340 334 328 318 311 309 309 311 315 316 317 317 319 321 321 320 320
258 269 277 289 301 310 318 326 331 337 344 351 356 1 7 9 9 9 10 11 13 18 20 17 13 9 5 0 357 358 358 355 347 343 344 343 341 342 343 344 346 346 343 340
252 265 271 287 302 314 325 332 338 346 355 3 9 14 19 20 21 22 25 30 33 34 35 33 31 29 28 27 26 27 29 31 29 26 27 26 24 23 18 16 12 8 4 1
236 249 263 275 299 323 339 349 356 2 10 18 22 26 29 30 32 37 41 42 44 43 44 45 45 46 47 48 47 49 50 53 55 56 55 53 47 41 35 31 28 25 22 20
220 229 237 255 286 331 352 3 9 17 27 33 36 38 39 40 42 45 47 49 50 50 51 52 52 53 55 56 57 59 61 64 66 63 59 54 49 46 43 41 39 37 34 31
207 215 219 224 242 343 11 24 31 36 42 45 46 46 46 46 48 49 50 53 53 53 54 54 55 57 59 62 63 64 65 66 65 61 56 53 52 50 47 44 41 39 37 36
201 202 203 202 186 120 60 56 54 54 56 55 55 54 53 53 54 54 54 55 55 55 56 57 58 60 62 63 65 64 63 63 61 59 56 55 53 50 47 45 44 45 43 40
192 193 193 186 169 141 108 83 72 70 67 64 63 63 61 60 59 59 58 57 57 58 59 61 62 63 65 65 65 65 63 62 62 60 58 55 53 51 49 48 48 47 45 43
191 191 185 175 162 144 124 102 87 81 75 70 68 66 65 64 64 63 62 63 62 62 63 64 65 66 67 67 65 64 65 64 63 61 58 55 53 51 49 47 46 46 45 44
188 185 178 169 160 147 131 113 98 88 82 77 73 70 69 69 68 67 66 67 66 65 65 66 66 66 66 67 66 66 65 64 62 60 58 56 53 51 48 47 46 46 45 43
186 183 176 168 160 151 138 124 109 96 88 83 78 75 72 71 70 69 68 67 67 66 66 66 65 65 64 63 63 62 62 60 59 58 56 54 52 49 47 46 45 44 43 42
187 183 177 170 163 155 145 133 120 106 95 88 83 79 76 73 71 70 70 68 67 66 65 64 63 62 61 60 59 58 59 57 55 55 53 51 49 47 45 43 42 41 40 39
188 185 180 175 168 160 152 142 130 117 104 94 87 82 79 75 73 70 69 67 66 64 62 61 60 59 58 57 55 55 55 54 52 50 48 46 44 43 41 39 38 37 35 34
189 186 183 179 175 169 162 152 142 130 117 103 93 85 80 76 73 70 68 65 63 61 58 56 56 55 53 51 51 50 49 48 46 44 42 40 38 37 35 33 33 32 30 29
190 189 186 184 182 178 172 165 156 146 133 118 102 91 84 78 73 69 66 63 60 57 55 52 51 50 48 46 45 45 43 42 40 38 36 33 30 28 26 25 24 23 21 20
192 191 189 188 187 184 181 176 170 163 154 139 120 102 90 79 70 63 59 57 55 52 50 47 44 43 41 39 38 38 36 35 33 31 28 26 23 21 19 18 16 14 12 10
Height
5764 5763 5763 5763 5763 5762 5760 5758 5756 5754 5751 5748 5746 5743 5741 5738 5736 5734 5732 5731 5729 5728 5727 5726 5726 5726 5726 5726 5726 5725 5725 5726 5726 5727 5728 5729 5729 5730 5731 5731 5731 5732 5732 5733
5761 5761 5760 5760 5760 5759 5757 5755 5753 5751 5748 5744 5742 5740 5738 5735 5732 5730 5728 5726 5724 5723 5722 5721 5721 5721 5721 5721 5720 5720 5720 5720 5721 5721 5722 5723 5723 5724 5724 5725 5725 5726 5726 5727
5758 5758 5757 5758 5757 5755 5754 5752 5750 5747 5745 5741 5739 5736 5734 5731 5729 5726 5724 5722 5720 5719 5718 5717 5716 5716 5716 5715 5715 5715 5715 5715 5716 5716 5717 5717 5718 5718 5719 5719 5719 5720 5720 5721
5755 5756 5755 5756 5753 5752 5750 5748 5746 5743 5741 5738 5735 5733 5730 5727 5725 5722 5720 5718 5716 5715 5714 5713 5712 5711 5711 5710 5710 5710 5711 5711 5711 5711 5711 5712 5712 5713 5713 5713 5714 5714 5714 5715
5752 5752 5752 5751 5749 5748 5747 5744 5742 5740 5737 5735 5732 5729 5726 5724 5721 5719 5716 5714 5712 5711 5710 5709 5708 5707 5706 5706 5706 5706 5706 5706 5707 5707 5707 5707 5707 5707 5708 5708 5708 5709 5709 5709
5750 5749 5748 5749 5747 5745 5745 5741 5738 5736 5734 5731 5729 5727 5724 5720 5717 5715 5712 5710 5709 5707 5706 5705 5704 5703 5703 5702 5702 5702 5703 5703 5703 5703 5703 5703 5703 5703 5703 5703 5704 5704 5704 5704
5747 5746 5745 5745 5744 5744 5743 5741 5736 5733 5731 5729 5726 5724 5721 5717 5714 5712 5709 5707 5706 5704 5703 5702 5701 5701 5700 5700 5700 5699 5699 5699 5699 5699 5699 5699 5699 5699 5699 5699 5700 5700 5699 5699
5744 5744 5745 5743 5742 5741 5740 5737 5734 5732 5729 5726 5723 5721 5717 5715 5712 5709 5707 5705 5703 5702 5700 5700 5699 5698 5697 5697 5697 5697 5696 5696 5696 5696 5696 5696 5696 5695 5696 5696 5695 5695 5695 5695
5742 5743 5741 5740 5739 5738 5736 5734 5732 5730 5727 5724 5721 5718 5715 5713 5710 5707 5705 5703 5701 5700 5699 5697 5697 5696 5695 5695 5694 5694 5694 5694 5693 5693 5693 5693 5693 5693 5692 5692 5692 5691 5691 5691
5738 5738 5738 5738 5737 5736 5734 5732 5730 5728 5725 5722 5720 5717 5714 5711 5709 5706 5704 5702 5700 5699 5697 5696 5695 5694 5693 5693 5692 5692 5692 5691 5691 5691 5691 5690 5690 5690 5690 5689 5689 5688 5688 5687
5736 5737 5736 5736 5735 5734 5732 5731 5728 5726 5724 5721 5718 5716 5713 5710 5708 5705 5703 5701 5700 5698 5697 5695 5694 5693 5692 5691 5691 5690 5690 5690 5689 5689 5689 5689 5688 5688 5687 5687 5687 5686 5685 5685
5735 5736 5735 5735 5734 5732 5731 5729 5727 5725 5723 5720 5718 5715 5713 5710 5707 5705 5703 5701 5699 5698 5696 5695 5694 5693 5692 5691 5690 5690 5689 5688 5688 5688 5688 5687 5687 5687 5686 5686 5685 5684 5684 5683
5733 5734 5734 5733 5733 5731 5730 5728 5726 5724 5722 5720 5718 5715 5713 5710 5708 5705 5703 5701 5700 5698 5697 5695 5694 5693 5692 5691 5690 5689 5689 5688 5688 5687 5687 5687 5686 5686 5685 5685 5684 5684 5683 5682
5731 5732 5733 5732 5732 5730 5729 5727 5726 5724 5722 5720 5718 5716 5713 5711 5709 5706 5704 5703 5701 5699 5698 5697 5695 5694 5693 5692 5691 5690 5689 5688 5688 5687 5687 5687 5686 5686 5686 5685 5684 5683 5683 5682
5730 5731 5732 5732 5731 5730 5729 5728 5726 5725 5723 5721 5719 5717 5715 5713 5711 5709 5707 5705 5703 5702 5700 5698 5697 5695 5694 5693 5692 5691 5690 5690 5689 5689 5689 5688 5688 5687 5687 5686 5685 5684 5683 5682
5729 5731 5731 5731 5731 5730 5730 5729 5727 5726 5724 5722 5721 5719 5717 5715 5713 5711 5709 5708 5706 5704 5703 5701 5700 5698 5697 5696 5695 5694 5693 5692 5692 5692 5691 5690 5690 5689 5688 5687 5686 5685 5684 5683
5728 5730 5731 5731 5731 5731 5730 5730 5729 5727 5726 5724 5723 5722 5720 5718 5716 5715 5713 5711 5709 5708 5706 5704 5703 5701 5700 5699 5698 5697 5696 5695 5695 5694 5693 5693 5692 5691 5690 5689 5688 5687 5686 5685
5728 5730 5731 5731 5732 5732 5731 5731 5730 5729 5728 5727 5725 5724 5723 5721 5720 5718 5716 5714 5713 5711 5709 5708 5706 5705 5704 5703 5702 5701 5700 5699 5698 5697 5697 5696 5695 5694 5693 5692 5691 5689 5688 5687
5727 5729 5731 5732 5732 5732 5732 5732 5732 5731 5730 5729 5728 5727 5726 5725 5723 5722 5720 5718 5717 5715 5713 5711 5710 5709 5708 5707 5706 5705 5704 5703 5702 5701 5700 5699 5698 5697 5696 5695 5693 5692 5691 5689
5727 5729 5731 5732 5733 5733 5734 5734 5734 5733 5733 5732 5731 5730 5729 5728 5727 5725 5724 5722 5721 5719 5717 5716 5714 5713 5712 5711 5710 5709 5708 5707 5706 5705 5704 5703 5702 5700 5699 5698 5696 5695 5694 5692
5727 5729 5731 5732 5734 5735 5735 5736 5736 5736 5735 5735 5734 5733 5732 5731 5730 5729 5728 5727 5725 5724 5722 5720 5719 5718 5716 5715 5714 5713 5712 5711 5710 5709 5708 5707 5705 5704 5703 5701 5700 5698 5697 5695
5727 5729 5731 5733 5735 5736 5737 5737 5738 5738 5738 5737 5737 5736 5736 5735 5734 5733 5732 5731 5729 5728 5726 5725 5724 5722 5721 5720 5719 5718 5716 5715 5714 5713 5711 5710 5709 5708 5706 5705 5703 5701 5700 5698
5727 5729 5732 5734 5735 5737 5738 5739 5739 5740 5740 5740 5740 5739 5739 5738 5737 5736 5735 5734 5733 5732 5731 5729 5728 5727 5725 5724 5723 5722 5720 5719 5718 5716 5715 5714 5712 5711 5709 5708 5706 5705 5703 5701
5726 5729 5732 5734 5736 5738 5739 5740 5741 5742 5742 5742 5742 5742 5741 5741 5740 5739 5739 5738 5737 5735 5734 5733 5732 5731 5729 5728 5727 5725 5724 5723 5721 5720 5719 5717 5716 5714 5712 5711 5709 5707 5706 5704
5725 5728 5731 5734 5736 5738 5740 5741 5742 5743 5744 5744 5744 5744 5744 5743 5743 5743 5742 5741 5740 5739 5738 5737 5735 5734 5733 5732 5730 5729 5727 5726 5724 5723 5722 5720 5719 5717 5715 5713 5712 5710 5708 5706
5724 5728 5731 5734 5736 5738 5740 5742 5743 5744 5745 5745 5746 5746 5746 5746 5745 5745 5744 5743 5742 5742 5741 5740 5738 5737 5736 5735 5733 5732 5730 5729 5727 5726 5724 5722 5721 5719 5717 5715 5714 5712 5710 5708
5722 5726 5729 5732 5735 5738 5740 5742 5743 5744 5745 5746 5747 5747 5747 5747 5747 5747 5746 5745 5745 5744 5743 5742 5741 5739 5738 5737 5735 5734 5732 5731 5729 5728 5726 5724 5723 5721 5719 5717 5715 5713 5711 5709